Total_Precipitation_Accumulation
0.09 0.09 0.15 0.47 1.57 2.51 2.17 1.18 0.80 0.78 0.61 0.39 0.58 0.57 0.17 0.03 0.01 0.00 0.00 0.00 0.00 0.00 0.00 0.00 0.00 0.00 0.00 0.00 0.00 0.00 0.00 0.00 0.00 0.00 0.00 0.00 0.00 0.00 0.00 0.00 0.00 0.00 0.00
0.05 0.10 0.11 0.20 0.88 1.91 2.44 1.51 0.85 0.73 0.69 0.51 0.55 0.89 0.57 0.36 0.16 0.14 0.06 0.01 0.02 0.01 0.00 0.00 0.00 0.00 0.00 0.00 0.00 0.00 0.00 0.00 0.00 0.00 0.00 0.00 0.00 0.00 0.00 0.00 0.00 0.00 0.00
0.04 0.06 0.10 0.13 0.36 0.82 1.94 1.94 1.32 1.09 0.96 0.72 0.77 0.60 0.55 0.47 0.30 0.22 0.25 0.20 0.13 0.05 0.02 0.02 0.00 0.00 0.00 0.00 0.00 0.01 0.01 0.01 0.01 0.01 0.00 0.00 0.00 0.00 0.00 0.00 0.00 0.00 0.00
0.05 0.03 0.07 0.05 0.08 0.30 0.93 1.75 1.37 1.10 1.28 1.21 1.04 0.88 0.45 0.35 0.35 0.36 0.45 0.27 0.14 0.06 0.07 0.09 0.06 0.05 0.03 0.08 0.06 0.06 0.05 0.02 0.02 0.01 0.00 0.00 0.00 0.00 0.00 0.00 0.00 0.00 0.00
0.03 0.03 0.03 0.03 0.04 0.21 0.67 1.12 1.02 1.36 1.40 2.42 2.11 2.03 1.71 0.89 0.47 0.50 0.51 0.41 0.25 0.19 0.27 0.34 0.37 0.29 0.33 0.32 0.28 0.22 0.13 0.11 0.10 0.06 0.03 0.01 0.00 0.00 0.00 0.00 0.00 0.00 0.00
0.02 0.03 0.03 0.04 0.05 0.15 0.30 1.04 1.12 1.36 1.28 2.39 3.95 3.12 2.33 1.77 1.35 0.91 0.73 0.75 0.62 0.54 0.54 0.51 0.50 0.56 0.83 0.69 0.49 0.42 0.29 0.22 0.20 0.17 0.13 0.08 0.07 0.05 0.05 0.06 0.04 0.04 0.02
0.02 0.03 0.01 0.02 0.06 0.14 0.17 0.26 0.84 1.12 1.26 1.12 2.20 2.95 2.60 1.67 1.25 1.09 1.04 0.99 0.95 0.96 0.94 0.77 0.64 0.57 0.46 0.42 0.40 0.47 0.50 0.47 0.42 0.36 0.37 0.42 0.44 0.48 0.43 0.39 0.33 0.23 0.14
0.05 0.04 0.01 0.01 0.03 0.10 0.10 0.08 0.22 0.50 0.78 0.76 0.87 0.84 1.15 1.33 1.32 1.03 0.73 0.50 0.47 0.56 0.76 0.60 0.39 0.41 0.45 0.41 0.38 0.39 0.44 0.50 0.54 0.61 0.72 0.76 0.73 0.80 0.86 0.80 0.65 0.46 0.28
0.06 0.03 0.01 0.01 0.03 0.08 0.12 0.08 0.06 0.15 0.39 0.51 0.61 0.52 0.38 0.48 0.57 0.62 0.54 0.38 0.32 0.35 0.33 0.32 0.24 0.20 0.18 0.16 0.16 0.19 0.19 0.19 0.20 0.22 0.26 0.32 0.34 0.35 0.39 0.46 0.46 0.46 0.26
0.05 0.03 0.05 0.00 0.01 0.09 0.11 0.10 0.09 0.08 0.16 0.25 0.25 0.30 0.31 0.28 0.35 0.21 0.12 0.07 0.08 0.06 0.09 0.09 0.09 0.09 0.08 0.08 0.04 0.01 0.00 0.01 0.01 0.02 0.03 0.05 0.11 0.22 0.28 0.32 0.34 0.41 0.41
0.01 0.02 0.02 0.01 0.01 0.14 0.09 0.06 0.05 0.04 0.07 0.09 0.11 0.17 0.19 0.12 0.14 0.15 0.08 0.05 0.03 0.02 0.02 0.02 0.01 0.00 0.00 0.00 0.00 0.00 0.02 0.02 0.02 0.03 0.03 0.03 0.02 0.02 0.03 0.06 0.10 0.14 0.15
0.00 0.00 0.00 0.01 0.04 0.07 0.05 0.03 0.05 0.03 0.03 0.05 0.07 0.08 0.04 0.05 0.04 0.02 0.02 0.01 0.01 0.01 0.00 0.00 0.00 0.00 0.00 0.00 0.00 0.01 0.04 0.04 0.04 0.02 0.02 0.01 0.00 0.00 0.00 0.00 0.00 0.00 0.00
0.00 0.00 0.00 0.00 0.04 0.12 0.05 0.02 0.01 0.01 0.02 0.04 0.02 0.02 0.02 0.02 0.02 0.00 0.00 0.00 0.00 0.00 0.00 0.01 0.01 0.01 0.01 0.00 0.00 0.00 0.01 0.01 0.01 0.00 0.00 0.00 0.00 0.00 0.00 0.00 0.00 0.00 0.00
0.00 0.00 0.00 0.00 0.00 0.04 0.05 0.03 0.01 0.01 0.03 0.04 0.02 0.02 0.01 0.00 0.00 0.00 0.00 0.00 0.00 0.00 0.00 0.00 0.00 0.00 0.00 0.00 0.00 0.00 0.00 0.00 0.00 0.00 0.00 0.00 0.00 0.00 0.00 0.00 0.00 0.00 0.01
0.00 0.00 0.00 0.00 0.00 0.00 0.01 0.03 0.01 0.00 0.01 0.02 0.02 0.02 0.02 0.01 0.00 0.00 0.00 0.00 0.00 0.00 0.00 0.00 0.00 0.00 0.00 0.00 0.00 0.00 0.00 0.00 0.00 0.00 0.00 0.00 0.00 0.00 0.00 0.00 0.00 0.00 0.01
0.00 0.00 0.00 0.00 0.01 0.00 0.00 0.01 0.00 0.00 0.00 0.01 0.01 0.01 0.00 0.00 0.00 0.00 0.00 0.00 0.00 0.00 0.00 0.00 0.00 0.00 0.00 0.00 0.00 0.00 0.00 0.00 0.00 0.00 0.00 0.00 0.00 0.00 0.00 0.00 0.00 0.01 0.01
0.00 0.00 0.00 0.00 0.00 0.00 0.00 0.00 0.00 0.00 0.00 0.00 0.00 0.00 0.00 0.00 0.00 0.00 0.00 0.00 0.00 0.00 0.00 0.00 0.00 0.00 0.00 0.00 0.00 0.00 0.00 0.00 0.00 0.00 0.00 0.00 0.00 0.00 0.00 0.00 0.01 0.01 0.03
0.00 0.00 0.00 0.00 0.00 0.00 0.00 0.00 0.00 0.00 0.00 0.00 0.00 0.00 0.00 0.00 0.00 0.00 0.00 0.00 0.00 0.00 0.00 0.00 0.00 0.00 0.00 0.00 0.00 0.00 0.00 0.00 0.00 0.00 0.00 0.00 0.00 0.00 0.00 0.00 0.00 0.00 0.01
0.00 0.00 0.00 0.00 0.00 0.00 0.00 0.00 0.00 0.00 0.00 0.00 0.00 0.00 0.00 0.00 0.00 0.00 0.00 0.00 0.00 0.00 0.00 0.00 0.00 0.00 0.00 0.00 0.00 0.00 0.00 0.00 0.00 0.00 0.00 0.00 0.00 0.01 0.01 0.00 0.00 0.00 0.00
0.00 0.00 0.00 0.00 0.00 0.00 0.00 0.00 0.00 0.00 0.00 0.00 0.00 0.00 0.00 0.00 0.00 0.00 0.00 0.00 0.00 0.00 0.00 0.00 0.00 0.00 0.00 0.00 0.00 0.00 0.00 0.00 0.00 0.00 0.00 0.00 0.00 0.00 0.00 0.00 0.00 0.00 0.00
0.00 0.00 0.00 0.00 0.00 0.00 0.00 0.00 0.00 0.00 0.00 0.00 0.00 0.00 0.00 0.00 0.00 0.00 0.00 0.00 0.00 0.00 0.00 0.00 0.00 0.00 0.00 0.00 0.00 0.00 0.00 0.00 0.00 0.00 0.00 0.00 0.01 0.00 0.00 0.00 0.00 0.00 0.00
0.00 0.00 0.00 0.00 0.00 0.00 0.00 0.00 0.00 0.00 0.00 0.00 0.00 0.00 0.00 0.00 0.00 0.00 0.00 0.00 0.00 0.00 0.00 0.00 0.00 0.00 0.00 0.00 0.00 0.00 0.00 0.00 0.00 0.00 0.00 0.00 0.01 0.01 0.00 0.00 0.00 0.00 0.00
0.00 0.00 0.00 0.00 0.00 0.00 0.00 0.00 0.00 0.00 0.00 0.00 0.00 0.00 0.00 0.00 0.00 0.00 0.00 0.00 0.00 0.00 0.00 0.00 0.00 0.00 0.00 0.00 0.00 0.00 0.00 0.00 0.00 0.00 0.00 0.00 0.00 0.00 0.00 0.00 0.00 0.00 0.00
0.00 0.00 0.00 0.00 0.00 0.00 0.00 0.00 0.00 0.00 0.00 0.00 0.00 0.00 0.00 0.00 0.00 0.00 0.00 0.00 0.00 0.00 0.00 0.00 0.00 0.00 0.00 0.00 0.00 0.00 0.01 0.00 0.00 0.00 0.00 0.00 0.00 0.00 0.00 0.00 0.00 0.00 0.00
0.00 0.00 0.00 0.00 0.00 0.00 0.00 0.00 0.00 0.00 0.00 0.00 0.00 0.00 0.00 0.00 0.00 0.00 0.00 0.00 0.00 0.00 0.00 0.00 0.00 0.00 0.00 0.01 0.02 0.00 0.00 0.00 0.00 0.00 0.00 0.00 0.00 0.00 0.00 0.00 0.00 0.00 0.00
0.01 0.00 0.00 0.00 0.00 0.00 0.00 0.00 0.00 0.00 0.00 0.00 0.00 0.00 0.00 0.00 0.00 0.00 0.00 0.00 0.00 0.00 0.00 0.00 0.00 0.00 0.00 0.01 0.00 0.00 0.00 0.00 0.01 0.00 0.00 0.00 0.00 0.00 0.00 0.00 0.00 0.00 0.00